Alexandria, MN

11:24 PM CDT on October 19, 2017 (GMT -0500)
Chandler

Weather History for KAXN - February, 2014

Change the Weather History Date:

Monday, February 3, 2014

  Actual Average Record
Temperature  
Mean Temperature 4 °F -  
Max Temperature 12 °F 17 °F 44 °F (2005)
Min Temperature -4 °F -1 °F -33 °F (1989)
Degree Days  
Heating Degree Days 61    
Moisture  
Dew Point -1 °F    
Average Humidity 78    
Maximum Humidity 90    
Minimum Humidity 64    
Precipitation  
Precipitation 0.00 in - - ()
Sea Level Pressure  
Sea Level Pressure 30.30 in    
Wind  
Wind Speed 5 mph (WNW)    
Max Wind Speed 10 mph    
Max Gust Speed -    
Visibility 10 miles    
Events      
Averages and records for this station are not official NWS values.
T = Trace of Precipitation, MM = Missing Value Source: NWS Daily Summary

Daily Weather History Graph

Daily Weather History Graph

Search for Another Location

Airport or City:

Trip Planner

Search our weather history database for the weather conditions in past years. The results will help you decide how hot, cold, wet, or windy it might be!

Date:

Astronomy

Feb. 03, 2014 Rise Set
Actual Time 7:40 AM CST 5:30 PM CST
Civil Twilight 7:09 AM CST 6:02 PM CST
Nautical Twilight 6:33 AM CST 6:37 PM CST
Astronomical Twilight 5:58 AM CST 7:12 PM CST
Moon 9:27 AM CST (2/3) 10:40 PM CST (2/3)
Length of Visible Light 10h 52m
Length of Day
9h 49m
Waxing Crescent, 20% of the Moon is Illuminated
Feb 3
Waxing Crescent
Feb 6
First Quarter
Feb 14
Full
Feb 22
Last Quarter
Mar 1
New

Hourly Weather History & Observations

Time (CST) Temp. Windchill Dew Point Humidity Pressure Visibility Wind Dir Wind Speed Gust Speed Precip Events Conditions
12:53 AM 1.9 °F -5.6 °F -2.9 °F 80% 30.18 in 10.0 mi SSW 3.5 mph - N/A   Clear
1:53 AM 1.0 °F - -4.0 °F 79% 30.19 in 10.0 mi Calm Calm - N/A   Clear
2:53 AM -4.0 °F -17.8 °F -8.0 °F 83% 30.21 in 10.0 mi SW 6.9 mph - N/A   Clear
3:53 AM -2.0 °F -12.2 °F -5.1 °F 87% 30.21 in 10.0 mi West 4.6 mph - N/A   Clear
4:53 AM -2.9 °F -17.7 °F -6.0 °F 87% 30.22 in 10.0 mi NW 8.1 mph - N/A   Clear
5:53 AM -2.9 °F -15.0 °F -5.1 °F 90% 30.23 in 10.0 mi NW 5.8 mph - N/A   Clear
6:53 AM -0.9 °F -11.0 °F -5.1 °F 83% 30.24 in 10.0 mi WNW 4.6 mph - N/A   Clear
7:53 AM -0.9 °F -8.9 °F -4.0 °F 87% 30.27 in 10.0 mi NW 3.5 mph - N/A   Clear
8:53 AM 1.0 °F -8.7 °F -2.0 °F 87% 30.29 in 10.0 mi NNW 4.6 mph - N/A   Partly Cloudy
9:53 AM 6.1 °F -5.6 °F 1.0 °F 80% 30.30 in 10.0 mi North 6.9 mph - N/A   Overcast
10:37 AM 6.8 °F -2.0 °F 1.4 °F 79% 30.19 in 10.0 mi NNW 4.6 mph - N/A   Scattered Clouds
10:53 AM 8.1 °F -2.0 °F 1.0 °F 73% 30.30 in 10.0 mi NNW 5.8 mph - N/A   Clear
11:53 AM 9.0 °F -0.9 °F 1.0 °F 70% 30.31 in 10.0 mi WNW 5.8 mph - N/A   Clear
12:53 PM 10.0 °F -3.7 °F 1.0 °F 67% 30.32 in 10.0 mi NW 10.4 mph - N/A   Clear
1:53 PM 12.0 °F -1.3 °F 1.9 °F 64% 30.30 in 10.0 mi WNW 10.4 mph - N/A   Clear
2:53 PM 10.9 °F -1.8 °F 1.0 °F 64% 30.31 in 10.0 mi WNW 9.2 mph - N/A   Clear
3:53 PM 10.9 °F 0.2 °F 1.0 °F 64% 30.33 in 10.0 mi WNW 6.9 mph - N/A   Clear
4:53 PM 9.0 °F -0.9 °F -0.0 °F 67% 30.35 in 10.0 mi West 5.8 mph - N/A   Clear
5:53 PM 7.0 °F 0.1 °F -0.9 °F 70% 30.36 in 10.0 mi WNW 3.5 mph - N/A   Clear
6:53 PM 3.9 °F - -2.9 °F 73% 30.37 in 10.0 mi Calm Calm - N/A   Clear
7:53 PM 5.0 °F - -0.9 °F 76% 30.37 in 10.0 mi Calm Calm - N/A   Mostly Cloudy
8:53 PM 3.0 °F -8.0 °F -2.0 °F 80% 30.39 in 10.0 mi SW 5.8 mph - N/A   Overcast
9:53 PM 3.9 °F -6.9 °F -0.9 °F 80% 30.40 in 10.0 mi West 5.8 mph - N/A   Overcast
10:32 PM 6.8 °F -0.1 °F 1.4 °F 79% 30.30 in 10.0 mi West 3.5 mph - N/A   Overcast
10:53 PM 5.0 °F - -0.0 °F 80% 30.41 in 10.0 mi Calm Calm - N/A   Overcast
11:51 PM 3.2 °F -6.2 °F -0.4 °F 85% 30.31 in 10.0 mi WNW 4.6 mph - N/A   Mostly Cloudy
11:53 PM 3.9 °F -6.9 °F -0.0 °F 84% 30.43 in 10.0 mi WNW 5.8 mph - N/A   Mostly Cloudy